Hourly Data Report for May 24, 2012

All times are specified in Local Standard Time (LST). Add 1 hour to adjust for Daylight Saving Time where and when it is observed.

PENTICTON A
BRITISH COLUMBIA

49°27'45.000" N
119°36'08.000" W
344.40 m
1126146
71889
YYF

Download Data

Hourly Data (May 2012)
Hourly Data Report for May 24, 2012
Temp Definition
°C
Dew Point Temp Definition
°C
Rel Hum Definition
%
Wind Dir Definition
10's deg

Wind Spd Definition
km/h
Visibility Definition
km
Stn Press Definition
kPa
Hmdx Definition


Wind Chill Definition


Weather Definition


TIME
00:00 Legend Double Dagger 4.1 -0.5 72   0 10.0 97.03     LegendNANA
01:00 Legend Double Dagger 3.1 -0.4 78 36 6 10.0 97.05     Clear
02:00 Legend Double Dagger 2.0 -1.3 79   0 10.0 97.06     LegendNANA
03:00 Legend Double Dagger 2.6 -0.9 78 2 4 10.0 97.05     LegendNANA
04:00 Legend Double Dagger 2.4 -0.9 79 2 6 10.0 97.07     Mainly Clear
05:00 Legend Double Dagger 2.4 -0.7 80   0 10.0 97.07     LegendNANA
06:00 Legend Double Dagger 8.6 1.1 59 0 5 10.0 97.06     LegendNANA
07:00 Legend Double Dagger 10.7 0.5 49 5 4 10.0 97.01     Mainly Clear
08:00 Legend Double Dagger 12.7 -0.2 41   0 10.0 96.98     LegendNANA
09:00 Legend Double Dagger 14.8 1.1 39 35 14 10.0 96.91     LegendNANA
10:00 Legend Double Dagger 16.1 0.3 34 0 15 10.0 96.85     Mostly Cloudy
11:00 Legend Double Dagger 16.1 3.3 42 2 18 10.0 96.79     LegendNANA
12:00 Legend Double Dagger 17.4 1.9 35 0 13 10.0 96.76     LegendNANA
13:00 Legend Double Dagger 18.4 2.4 34 1 18 10.0 96.73     Mostly Cloudy
14:00 Legend Double Dagger 17.6 3.2 38 7 11 10.0 96.70     LegendNANA
15:00 Legend Double Dagger 18.2 3.0 36   0 10.0 96.64     LegendNANA
16:00 Legend Double Dagger 16.3 3.8 43 14 15 10.0 96.71     Cloudy
17:00 Legend Double Dagger 16.5 4.6 45 15 20 10.0 96.72     LegendNANA
18:00 Legend Double Dagger 13.7 7.1 64 23 18 10.0 96.81     LegendNANA
19:00 Legend Double Dagger 13.9 6.6 61 23 8 10.0 96.85     Mostly Cloudy
20:00 Legend Double Dagger 13.0 6.9 66   0 10.0 96.92     LegendNANA
21:00 Legend Double Dagger 13.6 5.6 58 2 12 10.0 97.03     LegendNANA
22:00 Legend Double Dagger 12.6 6.0 64 2 16 10.0 97.10     Cloudy
23:00 Legend Double Dagger 12.2 6.5 68 34 8 10.0 97.18     LegendNANA

Notes on Data Quality.

Legend

  • E = Estimated
  • M = Missing
  • NA = Not Available
  • ‡ = Partner data that is not subject to review by the National Climate Archives
Date modified: